CZ-3B DEB, 42474

Orbit data source: Space-Track

CZ-3B DEB, 42474 is space debris in HEO originally from a launch on Mon, 19 Dec 2011 UTC launched from the Xichang Space Center, China (XSC). Debris objects in space refer to the collection of defunct objects orbiting the Earth. Examples of debris include non-operational satellites, rocket bodies, and fragments generated from explosions, collisions, or faulty payload assembly.

Loading next visibility...
Identifier
42474, 2011-077AP
Orbit
HEO
Country
Flag of CNCN / PRC
Related business
Manufacturer
CALT
Mission
Spacecraft
Bus & Motor
Unknown
Mass
Unknown
Launch date (UTC)
2011-12-19 (15 years ago)
Launch vehicle
Unknown
Launch site
Xichang Space Center, China (XSC)
Object type
Payload
Rocket body
Debris
Shape & HBR
Unknown shape, 0.2 m
Radar Cross Section
Medium (>0.1 m² and <1 m²)

Expand to show TLE details & history
Last TLE update: 4 weeks ago

TLE from 4 weeks ago
0 CZ-3B DEB
1 42474U 11077AP  26239.41764359 -.00000243  00000-0  00000-0 0  9998
2 42474  22.4632  75.4423 7184596  95.4748 342.7251  1.66948938 70032
Epoch: 2026-08-27T10:01Z
TLE epoch observation values (Epoch: 2026-08-27T10:01:24.406Z)
Latitude
-0.00076°
Longitude
-50.36086°
Altitude
9,092.222 km
Speed
6.185 km/s
True Right ascension
05h 02m 35s
True Declination
0° 00' 03"
Sunlit
Object was in daylight at epoch
Visualization orbit readout
Latitude
Unknown
Longitude
Unknown
Altitude
Unknown
Speed
Unknown
Apparent Right ascension
Unknown
Apparent Declination
Unknown
Sunlit
N/A
Visualization observer readout
Local Sidereal Time
19:53:32
Azimuth
Unknown
Elevation
Unknown
Doppler factor
Unknown
Orbital elements
Apogee altitude
45,208.229 km
Perigee altitude
2,073.412 km
Semi-major axis
30,018.958 km
Eccentricity
0.71846
Inclination
22.4632°
RAAN
75.4423°
Arg. of periapsis
95.4748°
True anomaly
264.8954°
Mean anomaly
342.7251°
Eccentric anomaly
312.2582°
Mean motion
0.4173 °/min
Orbital period
862.69 mins
BSTAR
0
Loading maneuver chart data...
Computing Atmospheric mass density...
Loading historical data...
Loading historical data...
Loading historical data...
Loading historical data...
Loading historical data...
Loading historical data...
Loading historical data...

Documentation

Showing up to 5 results
|